Location: Powder Track
(41.8531°N, 72.3584°W)
Time: 09:17:19
(UTC+00:00)

A-11 Canister half - All Passes

Search period start: 31 July 2021 00:00
Search period end: 10 August 2021 00:00
Orbit: 1527 x 1682 km, 47.3° (Epoch: 30 July)

Date Brightness Start Highest point End Pass type
(mag) Time Alt. Az. Time Alt. Az. Time Alt. Az.
31 Jul - 01:14:18 10° W 01:18:27 14° WSW 01:22:33 10° SSW visible
31 Jul - 14:24:19 10° S 14:32:43 31° SE 14:41:04 10° ENE daylight
31 Jul - 16:26:45 10° SW 16:36:55 80° SSE 16:46:56 10° ENE daylight
31 Jul - 18:32:30 10° W 18:42:35 66° N 18:52:24 10° ENE daylight
31 Jul - 20:38:36 10° WNW 20:48:39 75° NNE 20:58:20 10° ESE daylight
31 Jul - 22:44:07 10° WNW 22:53:36 55° SW 23:02:45 10° SE daylight
01 Aug - 00:52:08 10° W 00:56:53 15° WSW 01:01:35 10° SSW visible
01 Aug - 14:02:53 10° S 14:11:06 29° SE 14:19:16 10° ENE daylight
01 Aug - 16:05:05 10° SW 16:15:14 78° SSE 16:25:15 10° ENE daylight
01 Aug - 18:10:45 10° W 18:20:51 66° N 18:30:42 10° ENE daylight
01 Aug - 20:16:52 10° WNW 20:26:56 74° NNE 20:36:39 10° ESE daylight
01 Aug - 22:22:23 10° WNW 22:31:58 57° SW 22:41:12 10° SE daylight
02 Aug - 00:30:03 10° W 00:35:19 16° WSW 00:40:32 10° SSW visible
02 Aug - 13:41:29 10° S 13:49:30 28° SE 13:57:28 10° ENE daylight
02 Aug - 15:43:25 10° SW 15:53:33 76° SSE 16:03:33 10° ENE daylight
02 Aug - 17:48:59 10° W 17:59:07 67° N 18:09:00 10° ENE daylight
02 Aug - 19:55:09 10° WNW 20:05:13 73° NNE 20:14:58 10° E daylight
02 Aug - 22:00:40 10° WNW 22:10:19 60° SW 22:19:38 10° SE daylight
03 Aug - 00:08:02 10° W 00:13:45 17° SW 00:19:24 10° SSW daylight
03 Aug - 13:20:05 10° S 13:27:53 26° SE 13:35:39 10° ENE daylight
03 Aug - 15:21:45 10° SW 15:31:52 73° SSE 15:41:53 10° ENE daylight
03 Aug - 17:27:14 10° W 17:37:22 68° N 17:47:18 10° ENE daylight
03 Aug - 19:33:25 10° WNW 19:43:30 72° NNE 19:53:16 10° E daylight
03 Aug - 21:38:56 10° WNW 21:48:40 62° SW 21:58:04 10° SE daylight
03 Aug - 23:46:03 10° W 23:52:11 19° SW 23:58:14 10° SSW daylight
04 Aug - 12:58:44 10° S 13:06:17 24° SE 13:13:48 10° ENE daylight
04 Aug - 15:00:07 10° SW 15:10:11 71° SE 15:20:11 10° ENE daylight
04 Aug - 17:05:29 10° W 17:15:38 69° NNW 17:25:36 10° ENE daylight
04 Aug - 19:11:41 10° WNW 19:21:47 71° NNE 19:31:33 10° E daylight
04 Aug - 21:17:13 10° WNW 21:27:02 65° SW 21:36:29 10° SE daylight
04 Aug - 23:24:07 10° W 23:30:37 20° SW 23:37:01 10° SSW daylight
05 Aug - 12:37:23 10° S 12:44:40 23° SE 12:51:57 10° E daylight
05 Aug - 14:38:28 10° SW 14:48:30 68° SE 14:58:29 10° ENE daylight
05 Aug - 16:43:44 10° W 16:53:54 70° NNW 17:03:53 10° ENE daylight
05 Aug - 18:49:56 10° WNW 19:00:03 70° NNE 19:09:51 10° E daylight
05 Aug - 20:55:30 10° WNW 21:05:23 68° SW 21:14:54 10° SE daylight
05 Aug - 23:02:12 10° W 23:09:02 22° SW 23:15:45 10° S daylight
06 Aug - 12:16:05 10° S 12:23:04 22° SE 12:30:03 10° E daylight
06 Aug - 14:16:50 10° SW 14:26:49 66° SE 14:36:47 10° ENE daylight
06 Aug - 16:21:59 10° W 16:32:10 71° NNW 16:42:11 10° ENE daylight
06 Aug - 18:28:12 10° WNW 18:38:19 69° N 18:48:09 10° E daylight
06 Aug - 20:33:46 10° WNW 20:43:42 70° SW 20:53:18 10° SE daylight
06 Aug - 22:40:19 10° W 22:47:27 23° SW 22:54:27 10° S daylight
07 Aug - 11:54:48 10° SSE 12:01:28 20° SE 12:08:08 10° E daylight
07 Aug - 13:55:13 10° SW 14:05:09 63° SE 14:15:05 10° ENE daylight
07 Aug - 16:00:15 10° W 16:10:25 72° NNW 16:20:29 10° ENE daylight
07 Aug - 18:06:28 10° WNW 18:16:35 68° N 18:26:26 10° E daylight
07 Aug - 20:12:03 10° WNW 20:22:03 73° SSW 20:31:41 10° SE daylight
07 Aug - 22:18:27 10° WNW 22:25:52 25° SW 22:33:09 10° S daylight
08 Aug - 11:33:34 10° SSE 11:39:52 19° SE 11:46:12 10° E daylight
08 Aug - 13:33:37 10° SW 13:43:29 61° SE 13:53:22 10° ENE daylight
08 Aug - 15:38:31 10° W 15:48:42 73° NNW 15:58:46 10° ENE daylight
08 Aug - 17:44:43 10° WNW 17:54:51 67° N 18:04:43 10° E daylight
08 Aug - 19:50:21 10° WNW 20:00:22 75° SSW 20:10:04 10° SE daylight
08 Aug - 21:56:36 10° WNW 22:04:17 27° SW 22:11:48 10° S daylight
09 Aug - 11:12:22 10° SSE 11:18:17 17° ESE 11:24:12 10° E daylight
09 Aug - 13:12:00 10° SW 13:21:49 58° SE 13:31:40 10° ENE daylight
09 Aug - 15:16:46 10° WSW 15:26:58 74° NNW 15:37:04 10° ENE daylight
09 Aug - 17:22:58 10° WNW 17:33:07 67° N 17:43:00 10° E daylight
09 Aug - 19:28:38 10° WNW 19:38:42 78° SSW 19:48:27 10° SE daylight
09 Aug - 21:34:46 10° WNW 21:42:41 28° SW 21:50:26 10° S daylight
